Station Historical Data
Daily Summary for April 4, 2017 Units:  Metric    English   Both
« Previous Day
Next Day »
Daily Weekly Monthly Yearly Custom
  High: Low: Average:
Temperature: 15.4 °C 4.7 °C 9.9 °C
Dew Point: 12.6 °C 2.7 °C 7.8 °C
Humidity: 91% 79% 87%
Wind Speed: 30.6km/h 1.6km/h 11.9km/h
Wind Gust: 59.5km/h - -
Wind- - SSW
Pressure: 1008 hPa 993.8 hPa -
Precipitation: 0 mm    
Historical Graphs
 
 
Tabular Data for April 4, 2017
Time Temperature Dew Point Pressure Wind Wind Speed Wind Gust Humidity Rainfall Rate (Hourly)
00:04 12.4 °C 10.5 °C 998.9 hPa ENE 4.8 km/h 9.7 km/h 88% 6.35 mm
00:09 12.4 °C 10.4 °C 998.5 hPa East 3.2 km/h 8 km/h 88% 6.35 mm
00:14 12.3 °C 10.6 °C 998.5 hPa SE 3.2 km/h 11.3 km/h 89% 6.35 mm
00:19 12.3 °C 10.6 °C 998.5 hPa ENE 3.2 km/h 9.7 km/h 89% 5.84 mm
00:24 12.3 °C 10.5 °C 998.2 hPa East 4.8 km/h 8 km/h 89% 5.59 mm
00:29 12.3 °C 10.5 °C 998.2 hPa East 4.8 km/h 11.3 km/h 89% 5.33 mm
00:34 12.2 °C 10.4 °C 997.9 hPa East 6.4 km/h 16.1 km/h 89% 4.83 mm
00:39 12.2 °C 10.4 °C 997.9 hPa East 6.4 km/h 16.1 km/h 89% 4.06 mm
00:44 12.1 °C 10.3 °C 997.9 hPa East 4.8 km/h 12.9 km/h 89% 3.56 mm
00:49 12.1 °C 10.3 °C 997.9 hPa East 4.8 km/h 12.9 km/h 89% 3.05 mm
00:54 12 °C 10.2 °C 997.5 hPa ESE 4.8 km/h 12.9 km/h 89% 3.05 mm
00:59 11.9 °C 10.2 °C 997.5 hPa ESE 4.8 km/h 14.5 km/h 89% 2.54 mm
01:04 11.9 °C 10.1 °C 997.2 hPa SE 3.2 km/h 12.9 km/h 89% 2.54 mm
01:09 11.9 °C 10.1 °C 997.2 hPa East 8 km/h 8 km/h 89% 2.54 mm
01:14 11.8 °C 10.1 °C 997.2 hPa SSE 6.4 km/h 11.3 km/h 89% 2.54 mm
01:19 11.8 °C 10.1 °C 997.2 hPa ESE 3.2 km/h 9.7 km/h 89% 2.54 mm
01:24 11.8 °C 10 °C 997.2 hPa SE 4.8 km/h 8 km/h 89% 2.54 mm
01:29 11.8 °C 10 °C 997.2 hPa SE 3.2 km/h 9.7 km/h 89% 2.29 mm
01:34 11.7 °C 9.9 °C 997.2 hPa SE 1.6 km/h 9.7 km/h 89% 2.03 mm
01:39 11.7 °C 9.9 °C 996.8 hPa SE 1.6 km/h 6.4 km/h 89% 2.29 mm
01:44 11.7 °C 10.1 °C 996.8 hPa SE 3.2 km/h 8 km/h 90% 2.03 mm
01:49 11.7 °C 10.1 °C 996.8 hPa SE 3.2 km/h 8 km/h 90% 1.78 mm
01:54 11.7 °C 10.1 °C 996.5 hPa SSE 3.2 km/h 9.7 km/h 90% 1.27 mm
01:59 11.7 °C 10.1 °C 996.5 hPa SSW 1.6 km/h 11.3 km/h 90% 1.27 mm
02:04 11.7 °C 9.9 °C 996.2 hPa SSE 6.4 km/h 9.7 km/h 89% 1.27 mm
02:09 11.7 °C 9.9 °C 996.2 hPa South 4.8 km/h 9.7 km/h 89% 1.02 mm
02:14 11.7 °C 9.9 °C 996.2 hPa South 4.8 km/h 11.3 km/h 89% 0.76 mm
02:19 11.7 °C 9.9 °C 995.8 hPa South 4.8 km/h 12.9 km/h 89% 0.76 mm
02:24 11.7 °C 9.9 °C 995.5 hPa South 3.2 km/h 14.5 km/h 89% 0.76 mm
02:29 11.7 °C 9.9 °C 995.5 hPa SSE 6.4 km/h 12.9 km/h 89% 0.51 mm
02:34 11.8 °C 9.8 °C 995.5 hPa SSE 6.4 km/h 12.9 km/h 88% 0.51 mm
02:39 11.8 °C 9.8 °C 995.1 hPa South 6.4 km/h 16.1 km/h 88% 0.25 mm
02:44 11.8 °C 9.9 °C 995.1 hPa South 8 km/h 16.1 km/h 88% 0.25 mm
02:49 11.9 °C 9.9 °C 995.1 hPa South 6.4 km/h 12.9 km/h 88% 0.25 mm
02:54 11.9 °C 10 °C 994.8 hPa South 6.4 km/h 12.9 km/h 88% 0.25 mm
02:59 11.9 °C 10 °C 994.8 hPa South 6.4 km/h 9.7 km/h 88% 0.25 mm
03:04 12.1 °C 9.9 °C 994.8 hPa South 6.4 km/h 11.3 km/h 87% 0.25 mm
03:09 12.1 °C 10 °C 994.5 hPa South 6.4 km/h 11.3 km/h 87% 0.25 mm
03:14 12.1 °C 10 °C 994.5 hPa South 6.4 km/h 8 km/h 87% 0.25 mm
03:19 12.2 °C 10.1 °C 994.5 hPa South 4.8 km/h 8 km/h 87% 0.25 mm
03:24 12.2 °C 10.1 °C 994.5 hPa South 6.4 km/h 14.5 km/h 87% 0 mm
03:29 12.3 °C 10 °C 994.1 hPa SSE 4.8 km/h 8 km/h 86% 0 mm
03:34 12.3 °C 10 °C 994.1 hPa South 1.6 km/h 6.4 km/h 86% 0 mm
03:39 12.3 °C 10.1 °C 994.5 hPa South 3.2 km/h 9.7 km/h 86% 0 mm
03:44 12.4 °C 10.1 °C 994.1 hPa SSW 6.4 km/h 9.7 km/h 86% 0 mm
03:49 12.4 °C 10.1 °C 994.5 hPa South 4.8 km/h 9.7 km/h 86% 0 mm
03:54 12.3 °C 10.1 °C 994.1 hPa South 4.8 km/h 9.7 km/h 86% 0 mm
03:59 12.5 °C 10.2 °C 994.1 hPa SSW 4.8 km/h 12.9 km/h 86% 0 mm
04:04 12.7 °C 10.2 °C 994.1 hPa SSW 4.8 km/h 12.9 km/h 85% 0 mm
04:09 12.7 °C 10.2 °C 994.1 hPa SSW 3.2 km/h 11.3 km/h 85% 0 mm
04:14 12.6 °C 10.2 °C 994.1 hPa SSW 3.2 km/h 6.4 km/h 85% 0 mm
04:19 12.6 °C 10.2 °C 994.1 hPa SW 4.8 km/h 11.3 km/h 85% 0 mm
04:24 12.7 °C 10.4 °C 994.1 hPa SSW 4.8 km/h 11.3 km/h 86% 0 mm
04:29 12.9 °C 10.7 °C 994.1 hPa SSW 4.8 km/h 11.3 km/h 86% 0 mm
04:34 13.2 °C 10.7 °C 994.1 hPa WSW 6.4 km/h 11.3 km/h 85% 0 mm
04:39 13.4 °C 10.8 °C 994.1 hPa SSW 6.4 km/h 12.9 km/h 84% 0 mm
04:44 13.6 °C 10.8 °C 994.1 hPa South 9.7 km/h 11.3 km/h 83% 0 mm
04:49 13.7 °C 10.8 °C 994.1 hPa South 9.7 km/h 12.9 km/h 83% 0 mm
04:54 13.7 °C 10.8 °C 994.1 hPa SSE 6.4 km/h 12.9 km/h 83% 0 mm
04:59 13.6 °C 10.7 °C 994.1 hPa SSW 6.4 km/h 16.1 km/h 83% 0 mm
05:04 13.4 °C 10.4 °C 994.1 hPa SSW 8 km/h 19.3 km/h 82% 0 mm
05:09 13.3 °C 10.3 °C 994.1 hPa SSW 8 km/h 19.3 km/h 82% 0 mm
05:14 13.2 °C 10.4 °C 994.1 hPa South 8 km/h 12.9 km/h 83% 0 mm
05:19 13.1 °C 10.2 °C 994.1 hPa South 6.4 km/h 12.9 km/h 83% 0 mm
05:24 12.9 °C 10.3 °C 994.1 hPa South 4.8 km/h 9.7 km/h 84% 0 mm
05:29 12.9 °C 10.2 °C 994.1 hPa South 6.4 km/h 12.9 km/h 84% 0 mm
05:34 12.8 °C 10.2 °C 994.1 hPa South 4.8 km/h 11.3 km/h 84% 0 mm
05:39 12.8 °C 10.2 °C 994.1 hPa South 8 km/h 11.3 km/h 84% 0 mm
05:44 12.8 °C 10.2 °C 994.1 hPa SSW 4.8 km/h 11.3 km/h 84% 0 mm
05:49 12.8 °C 10.4 °C 994.1 hPa SSW 9.7 km/h 11.3 km/h 85% 0 mm
05:54 12.8 °C 10.4 °C 994.1 hPa SSW 1.6 km/h 12.9 km/h 85% 0 mm
05:59 12.8 °C 10.3 °C 994.1 hPa South 4.8 km/h 11.3 km/h 85% 0 mm
06:04 12.7 °C 10.4 °C 994.1 hPa SSW 4.8 km/h 11.3 km/h 86% 0 mm
06:09 12.7 °C 10.4 °C 994.5 hPa SSW 4.8 km/h 11.3 km/h 86% 0 mm
06:14 12.6 °C 10.5 °C 994.1 hPa SSW 4.8 km/h 12.9 km/h 87% 0.51 mm
06:19 12.5 °C 10.6 °C 994.1 hPa South 4.8 km/h 12.9 km/h 88% 0.76 mm
06:24 12.4 °C 10.5 °C 994.5 hPa SSW 4.8 km/h 8 km/h 88% 1.02 mm
06:29 12.4 °C 10.7 °C 994.1 hPa SSW 3.2 km/h 6.4 km/h 89% 1.02 mm
06:34 12.4 °C 10.6 °C 994.1 hPa South 1.6 km/h 3.2 km/h 89% 1.27 mm
06:39 12.3 °C 10.6 °C 994.1 hPa South 1.6 km/h 4.8 km/h 89% 1.27 mm
06:44 12.4 °C 10.6 °C 994.1 hPa SSE 1.6 km/h 6.4 km/h 89% 1.27 mm
06:49 12.5 °C 10.7 °C 994.1 hPa South 1.6 km/h 6.4 km/h 89% 1.27 mm
06:54 12.6 °C 10.8 °C 994.1 hPa SSE 6.4 km/h 8 km/h 89% 1.27 mm
06:59 12.6 °C 10.8 °C 994.1 hPa SSE 3.2 km/h 9.7 km/h 89% 1.27 mm
07:04 12.7 °C 10.9 °C 994.1 hPa SSE 6.4 km/h 9.7 km/h 89% 1.27 mm
07:09 12.7 °C 10.8 °C 994.1 hPa SSE 4.8 km/h 9.7 km/h 88% 1.27 mm
07:14 12.8 °C 10.8 °C 994.1 hPa South 4.8 km/h 8 km/h 88% 0.76 mm
07:19 12.8 °C 10.9 °C 994.1 hPa South 4.8 km/h 11.3 km/h 88% 0.51 mm
07:24 12.9 °C 11 °C 994.1 hPa South 6.4 km/h 12.9 km/h 88% 0.25 mm
07:29 13.1 °C 10.9 °C 994.1 hPa South 6.4 km/h 14.5 km/h 87% 0.25 mm
07:34 13.2 °C 11.1 °C 994.1 hPa South 8 km/h 14.5 km/h 87% 0 mm
07:39 13.3 °C 11 °C 994.1 hPa South 16.1 km/h 17.7 km/h 86% 0 mm
07:44 13.4 °C 11.1 °C 994.1 hPa SSW 3.2 km/h 14.5 km/h 86% 0 mm
07:49 13.4 °C 11.2 °C 994.1 hPa South 6.4 km/h 14.5 km/h 86% 0 mm
07:54 13.6 °C 11.3 °C 994.1 hPa SSW 8 km/h 16.1 km/h 86% 0 mm
07:59 13.6 °C 11.1 °C 994.1 hPa South 8 km/h 16.1 km/h 85% 0 mm
08:04 13.7 °C 11.2 °C 994.1 hPa SSW 4.8 km/h 11.3 km/h 85% 0 mm
08:09 13.8 °C 11.3 °C 994.1 hPa South 4.8 km/h 14.5 km/h 85% 0 mm
08:14 13.9 °C 11.4 °C 994.1 hPa SSE 6.4 km/h 12.9 km/h 85% 0 mm
08:19 14.1 °C 11.4 °C 994.1 hPa South 8 km/h 14.5 km/h 84% 0 mm
08:24 14.1 °C 11.4 °C 994.1 hPa South 8 km/h 19.3 km/h 84% 0 mm
08:29 14.2 °C 11.6 °C 994.1 hPa South 8 km/h 19.3 km/h 84% 0 mm
08:34 14.2 °C 11.6 °C 994.1 hPa South 8 km/h 16.1 km/h 84% 0 mm
08:39 14.3 °C 11.8 °C 994.1 hPa South 8 km/h 16.1 km/h 85% 0 mm
08:44 14.3 °C 11.6 °C 994.1 hPa SSW 6.4 km/h 11.3 km/h 84% 0 mm
08:49 14.3 °C 11.6 °C 994.1 hPa South 8 km/h 19.3 km/h 84% 0 mm
08:54 14.3 °C 11.6 °C 994.1 hPa South 9.7 km/h 19.3 km/h 84% 0 mm
08:59 14.3 °C 11.8 °C 994.1 hPa South 6.4 km/h 14.5 km/h 85% 0 mm
09:04 14.3 °C 11.8 °C 994.1 hPa South 9.7 km/h 12.9 km/h 85% 0 mm
09:09 14.4 °C 11.8 °C 993.8 hPa South 9.7 km/h 17.7 km/h 84% 0 mm
09:14 14.6 °C 11.9 °C 993.8 hPa South 9.7 km/h 12.9 km/h 84% 0 mm
09:19 14.6 °C 11.9 °C 993.8 hPa South 8 km/h 16.1 km/h 84% 0 mm
09:24 15.3 °C 12.6 °C 993.8 hPa South 8 km/h 17.7 km/h 84% 0 mm
09:29 15.4 °C 12.5 °C 993.8 hPa SSW 8 km/h 17.7 km/h 83% 0 mm
09:34 15.4 °C 12.5 °C 993.8 hPa SSW 6.4 km/h 11.3 km/h 83% 0 mm
09:39 15.2 °C 12.3 °C 993.8 hPa SSW 6.4 km/h 12.9 km/h 83% 0.25 mm
09:44 15 °C 12.3 °C 993.8 hPa South 6.4 km/h 14.5 km/h 84% 0.25 mm
09:49 14.8 °C 12.2 °C 994.1 hPa SW 9.7 km/h 17.7 km/h 84% 0.25 mm
09:54 14.8 °C 12.3 °C 993.8 hPa SW 9.7 km/h 25.7 km/h 85% 0.25 mm
09:59 14.7 °C 12.4 °C 993.8 hPa SW 11.3 km/h 25.7 km/h 86% 0.25 mm
10:04 14.8 °C 12.4 °C 993.8 hPa SW 9.7 km/h 22.5 km/h 86% 0.25 mm
10:09 14.9 °C 12.6 °C 993.8 hPa SW 8 km/h 16.1 km/h 86% 0.25 mm
10:14 14.9 °C 12.6 °C 993.8 hPa SW 6.4 km/h 16.1 km/h 86% 0.25 mm
10:19 14.7 °C 12.3 °C 994.1 hPa WSW 6.4 km/h 14.5 km/h 86% 0.25 mm
10:25 14.3 °C 11.9 °C 994.1 hPa WSW 3.2 km/h 16.1 km/h 86% 0.25 mm
10:34 13.4 °C 11.2 °C 994.5 hPa WSW 14.5 km/h 20.9 km/h 86% 0.25 mm
10:39 13.1 °C 11 °C 994.5 hPa WSW 11.3 km/h 20.9 km/h 87% 0 mm
10:44 12.9 °C 11 °C 994.5 hPa WNW 11.3 km/h 12.9 km/h 88% 0 mm
10:49 12.9 °C 11.2 °C 994.5 hPa WNW 8 km/h 14.5 km/h 89% 0 mm
10:54 12.9 °C 11.1 °C 994.8 hPa West 17.7 km/h 22.5 km/h 89% 0.25 mm
10:59 12.7 °C 10.9 °C 994.8 hPa WSW 11.3 km/h 30.6 km/h 89% 0.25 mm
11:04 12.3 °C 10.6 °C 994.8 hPa WSW 12.9 km/h 30.6 km/h 89% 0.76 mm
11:09 12.3 °C 10.7 °C 994.8 hPa WNW 22.5 km/h 29 km/h 90% 1.27 mm
11:14 12.4 °C 11 °C 994.8 hPa WSW 16.1 km/h 29 km/h 91% 1.27 mm
11:19 12.4 °C 11 °C 994.8 hPa WSW 16.1 km/h 29 km/h 91% 1.52 mm
11:24 12.3 °C 10.8 °C 994.8 hPa WSW 16.1 km/h 37 km/h 91% 1.52 mm
11:29 12.3 °C 10.7 °C 994.8 hPa WSW 27.4 km/h 30.6 km/h 90% 1.52 mm
11:34 12.1 °C 10.6 °C 994.8 hPa SW 12.9 km/h 32.2 km/h 91% 1.52 mm
11:39 12.1 °C 10.6 °C 995.1 hPa West 12.9 km/h 40.2 km/h 91% 1.52 mm
11:44 12.2 °C 10.7 °C 995.1 hPa WSW 19.3 km/h 30.6 km/h 91% 1.52 mm
11:49 12.1 °C 10.5 °C 995.1 hPa West 9.7 km/h 40.2 km/h 90% 1.52 mm
11:54 11.9 °C 10.3 °C 995.1 hPa SSW 16.1 km/h 33.8 km/h 90% 1.27 mm
11:59 11.7 °C 10.1 °C 995.1 hPa SW 6.4 km/h 27.4 km/h 90% 1.27 mm
12:04 11.4 °C 9.8 °C 995.1 hPa West 12.9 km/h 29 km/h 90% 0.76 mm
12:09 11.1 °C 9.6 °C 995.1 hPa WSW 17.7 km/h 33.8 km/h 90% 0.25 mm
12:14 10.8 °C 9.2 °C 995.1 hPa WSW 17.7 km/h 33.8 km/h 90% 0.25 mm
12:19 10.4 °C 8.9 °C 995.1 hPa WSW 17.7 km/h 49.9 km/h 90% 0 mm
12:24 10.2 °C 8.7 °C 995.5 hPa WSW 19.3 km/h 49.9 km/h 90% 0 mm
12:29 10 °C 8.4 °C 995.5 hPa WSW 17.7 km/h 29 km/h 90% 0 mm
12:34 9.9 °C 8.4 °C 995.8 hPa West 17.7 km/h 33.8 km/h 90% 0 mm
12:39 9.9 °C 8.3 °C 995.8 hPa WSW 16.1 km/h 41.8 km/h 90% 0 mm
12:44 9.8 °C 8.2 °C 995.8 hPa WSW 17.7 km/h 40.2 km/h 90% 0 mm
12:49 9.8 °C 8.2 °C 995.8 hPa SW 14.5 km/h 33.8 km/h 90% 0 mm
12:54 9.6 °C 7.8 °C 996.2 hPa SSE 19.3 km/h 32.2 km/h 89% 0 mm
12:59 9 °C 7.3 °C 996.2 hPa SSW 12.9 km/h 29 km/h 89% 0 mm
13:04 8.8 °C 7.1 °C 996.5 hPa SW 20.9 km/h 33.8 km/h 89% 0 mm
13:09 8.8 °C 7.1 °C 996.5 hPa WSW 17.7 km/h 33.8 km/h 89% 0 mm
13:14 8.8 °C 6.9 °C 996.5 hPa WSW 17.7 km/h 32.2 km/h 88% 0 mm
13:19 8.8 °C 6.7 °C 996.8 hPa WSW 19.3 km/h 33.8 km/h 87% 0 mm
13:24 8.8 °C 6.7 °C 996.8 hPa WSW 17.7 km/h 33.8 km/h 87% 0 mm
13:29 8.9 °C 6.7 °C 996.8 hPa WSW 22.5 km/h 30.6 km/h 86% 0 mm
13:34 8.7 °C 6.3 °C 997.2 hPa West 9.7 km/h 33.8 km/h 85% 0 mm
13:39 8.5 °C 6.3 °C 997.2 hPa SW 19.3 km/h 37 km/h 86% 0 mm
13:44 8.3 °C 5.9 °C 997.2 hPa SW 17.7 km/h 37 km/h 85% 0 mm
13:49 8.3 °C 5.9 °C 997.2 hPa SW 17.7 km/h 35.4 km/h 85% 0 mm
13:54 8.3 °C 5.9 °C 997.2 hPa South 14.5 km/h 32.2 km/h 85% 0 mm
13:59 8.4 °C 5.8 °C 997.2 hPa SW 14.5 km/h 37 km/h 84% 0 mm
14:04 8.4 °C 5.8 °C 997.2 hPa NW 24.1 km/h 38.6 km/h 84% 0 mm
14:09 8.4 °C 5.9 °C 997.2 hPa SW 29 km/h 29 km/h 84% 0 mm
14:14 8.4 °C 5.7 °C 997.2 hPa SSW 16.1 km/h 38.6 km/h 83% 0 mm
14:19 8.8 °C 6.1 °C 997.2 hPa WSW 19.3 km/h 38.6 km/h 83% 0 mm
14:24 9.3 °C 6.6 °C 997.2 hPa WSW 17.7 km/h 35.4 km/h 83% 0 mm
14:29 9.8 °C 6.6 °C 997.2 hPa WSW 19.3 km/h 37 km/h 80% 0 mm
14:34 9.4 °C 5.9 °C 997.2 hPa SSE 30.6 km/h 40.2 km/h 79% 0 mm
14:39 9.2 °C 5.9 °C 997.2 hPa WSW 22.5 km/h 45.1 km/h 80% 0 mm
14:44 9.2 °C 5.9 °C 997.2 hPa WSW 17.7 km/h 59.5 km/h 80% 0 mm
14:49 9.2 °C 5.9 °C 997.5 hPa WSW 25.7 km/h 59.5 km/h 80% 0 mm
14:54 8.8 °C 5.6 °C 997.5 hPa WSW 25.7 km/h 54.7 km/h 80% 0 mm
14:59 8.6 °C 5.5 °C 997.9 hPa SW 9.7 km/h 45.1 km/h 81% 0 mm
15:04 8.4 °C 5.6 °C 997.9 hPa SW 25.7 km/h 53.1 km/h 82% 0 mm
15:09 8.3 °C 5.4 °C 997.9 hPa SW 4.8 km/h 41.8 km/h 82% 0 mm
15:14 8.2 °C 5.5 °C 997.9 hPa SSW 27.4 km/h 41.8 km/h 83% 0 mm
15:19 8.2 °C 5.5 °C 998.2 hPa SW 19.3 km/h 48.3 km/h 83% 0 mm
15:24 8.3 °C 5.7 °C 997.9 hPa SW 24.1 km/h 48.3 km/h 84% 0 mm
15:29 8.3 °C 5.8 °C 998.2 hPa WSW 22.5 km/h 46.7 km/h 84% 0 mm
15:34 8.3 °C 5.8 °C 998.2 hPa WSW 24.1 km/h 48.3 km/h 84% 0 mm
15:39 8.3 °C 5.8 °C 998.2 hPa SW 25.7 km/h 57.9 km/h 84% 0 mm
15:44 8.3 °C 5.7 °C 998.2 hPa WSW 14.5 km/h 43.5 km/h 84% 0 mm
15:49 8.2 °C 5.7 °C 998.2 hPa South 20.9 km/h 38.6 km/h 84% 0 mm
15:54 8.2 °C 5.8 °C 998.5 hPa WSW 24.1 km/h 46.7 km/h 85% 0 mm
15:59 8 °C 5.6 °C 998.5 hPa WSW 24.1 km/h 48.3 km/h 85% 0 mm
16:04 7.9 °C 5.5 °C 998.5 hPa WSW 22.5 km/h 48.3 km/h 85% 0 mm
16:09 7.8 °C 5.4 °C 998.5 hPa WNW 25.7 km/h 38.6 km/h 85% 0 mm
16:14 7.7 °C 5.3 °C 998.9 hPa South 20.9 km/h 43.5 km/h 85% 0 mm
16:19 7.6 °C 5.2 °C 998.5 hPa SW 22.5 km/h 38.6 km/h 85% 0 mm
16:24 7.6 °C 5.4 °C 998.5 hPa WSW 30.6 km/h 43.5 km/h 86% 0 mm
16:29 7.6 °C 5.4 °C 998.9 hPa SW 24.1 km/h 46.7 km/h 86% 0 mm
16:34 7.5 °C 5.2 °C 998.9 hPa WSW 25.7 km/h 53.1 km/h 85% 0 mm
16:39 7.4 °C 5.1 °C 998.9 hPa WSW 24.1 km/h 53.1 km/h 85% 0 mm
16:44 7.5 °C 5.3 °C 998.9 hPa WSW 22.5 km/h 46.7 km/h 86% 0 mm
16:49 7.6 °C 5.4 °C 999.2 hPa SW 17.7 km/h 43.5 km/h 86% 0 mm
16:54 7.6 °C 5.4 °C 999.5 hPa WSW 19.3 km/h 35.4 km/h 86% 0 mm
16:59 7.6 °C 5.4 °C 999.5 hPa West 14.5 km/h 38.6 km/h 86% 0 mm
17:04 7.5 °C 5.3 °C 999.5 hPa WSW 20.9 km/h 46.7 km/h 86% 0 mm
17:09 7.4 °C 5.3 °C 999.5 hPa SSW 19.3 km/h 37 km/h 86% 0 mm
17:14 7.4 °C 5.4 °C 999.5 hPa West 16.1 km/h 33.8 km/h 87% 0 mm
17:19 7.3 °C 5.3 °C 999.9 hPa WSW 19.3 km/h 38.6 km/h 87% 0 mm
17:24 7.3 °C 5.5 °C 999.9 hPa West 19.3 km/h 35.4 km/h 88% 0 mm
17:29 7.3 °C 5.4 °C 999.9 hPa WSW 20.9 km/h 35.4 km/h 88% 0 mm
17:34 7.2 °C 5.2 °C 999.9 hPa WSW 20.9 km/h 46.7 km/h 87% 0 mm
17:39 7.1 °C 5.1 °C 1000.2 hPa WSW 19.3 km/h 46.7 km/h 87% 0 mm
17:44 7.1 °C 5.1 °C 1000.2 hPa WSW 17.7 km/h 40.2 km/h 87% 0 mm
17:49 6.9 °C 4.9 °C 1000.2 hPa WSW 19.3 km/h 40.2 km/h 87% 0 mm
17:54 6.9 °C 4.9 °C 1000.6 hPa WSW 20.9 km/h 41.8 km/h 87% 0 mm
17:59 6.8 °C 4.8 °C 1000.9 hPa NW 16.1 km/h 35.4 km/h 87% 0 mm
18:04 6.8 °C 4.9 °C 1000.6 hPa WSW 11.3 km/h 33.8 km/h 88% 0 mm
18:09 6.7 °C 5.1 °C 1000.9 hPa WSW 20.9 km/h 38.6 km/h 89% 0 mm
18:14 6.6 °C 4.9 °C 1000.9 hPa WSW 19.3 km/h 38.6 km/h 89% 0 mm
18:19 6.4 °C 4.8 °C 1000.9 hPa SW 19.3 km/h 41.8 km/h 89% 0 mm
18:24 6.4 °C 4.7 °C 1000.9 hPa WSW 27.4 km/h 33.8 km/h 89% 0 mm
18:29 6.2 °C 4.7 °C 1001.2 hPa SSW 12.9 km/h 33.8 km/h 90% 0 mm
18:34 6.2 °C 4.7 °C 1001.6 hPa SW 14.5 km/h 33.8 km/h 90% 0 mm
18:39 6.1 °C 4.6 °C 1001.6 hPa WSW 19.3 km/h 33.8 km/h 90% 0 mm
18:44 6 °C 4.5 °C 1001.6 hPa WSW 17.7 km/h 33.8 km/h 90% 0 mm
18:49 5.9 °C 4.4 °C 1001.6 hPa WSW 19.3 km/h 33.8 km/h 90% 0 mm
18:54 5.8 °C 4.3 °C 1001.6 hPa WSW 17.7 km/h 32.2 km/h 90% 0 mm
18:59 5.8 °C 4.2 °C 1001.9 hPa South 8 km/h 32.2 km/h 89% 0 mm
19:04 5.8 °C 4.2 °C 1001.9 hPa WSW 16.1 km/h 32.2 km/h 89% 0 mm
19:09 5.8 °C 4.2 °C 1001.9 hPa WSW 12.9 km/h 32.2 km/h 89% 0 mm
19:14 5.9 °C 4.4 °C 1002.3 hPa WSW 16.1 km/h 32.2 km/h 90% 0 mm
19:19 6 °C 4.5 °C 1002.3 hPa WSW 14.5 km/h 30.6 km/h 90% 0 mm
19:24 6 °C 4.5 °C 1002.3 hPa WSW 14.5 km/h 27.4 km/h 90% 0 mm
19:29 6.1 °C 4.6 °C 1002.6 hPa West 20.9 km/h 22.5 km/h 90% 0 mm
19:34 6.1 °C 4.6 °C 1002.6 hPa West 14.5 km/h 24.1 km/h 90% 0 mm
19:39 6.1 °C 4.6 °C 1002.6 hPa SW 9.7 km/h 24.1 km/h 90% 0 mm
19:44 6.2 °C 4.7 °C 1002.6 hPa WSW 11.3 km/h 24.1 km/h 90% 0 mm
19:49 6.3 °C 4.8 °C 1002.6 hPa WSW 11.3 km/h 27.4 km/h 90% 0 mm
19:54 6.3 °C 4.8 °C 1002.9 hPa WSW 12.9 km/h 27.4 km/h 90% 0 mm
19:59 6.3 °C 4.6 °C 1002.9 hPa SW 12.9 km/h 20.9 km/h 89% 0 mm
20:04 6.3 °C 4.7 °C 1002.9 hPa WSW 11.3 km/h 20.9 km/h 89% 0 mm
20:09 6.3 °C 4.5 °C 1003.3 hPa SW 4.8 km/h 22.5 km/h 88% 0 mm
20:14 6.3 °C 4.5 °C 1003.3 hPa SW 16.1 km/h 20.9 km/h 88% 0 mm
20:19 6.4 °C 4.4 °C 1003.6 hPa WSW 12.9 km/h 25.7 km/h 87% 0 mm
20:24 6.4 °C 4.4 °C 1003.6 hPa WSW 12.9 km/h 25.7 km/h 87% 0 mm
20:29 6.4 °C 4.4 °C 1003.9 hPa WSW 11.3 km/h 24.1 km/h 87% 0 mm
20:34 6.4 °C 4.4 °C 1003.9 hPa WSW 11.3 km/h 24.1 km/h 87% 0 mm
20:39 6.3 °C 4.3 °C 1004.3 hPa SW 20.9 km/h 20.9 km/h 87% 0 mm
20:44 6.1 °C 4.1 °C 1004.3 hPa WSW 8 km/h 20.9 km/h 87% 0 mm
20:49 6 °C 4 °C 1004.6 hPa WSW 11.3 km/h 25.7 km/h 87% 0 mm
20:54 6 °C 3.8 °C 1004.6 hPa WSW 12.9 km/h 25.7 km/h 86% 0 mm
20:59 6.1 °C 3.9 °C 1004.6 hPa WSW 12.9 km/h 27.4 km/h 86% 0 mm
21:04 6.1 °C 3.9 °C 1004.6 hPa West 16.1 km/h 29 km/h 86% 0 mm
21:09 6.1 °C 3.9 °C 1005 hPa WSW 14.5 km/h 20.9 km/h 86% 0 mm
21:14 5.9 °C 3.8 °C 1005 hPa WSW 12.9 km/h 25.7 km/h 86% 0 mm
21:19 5.7 °C 3.6 °C 1005.3 hPa SW 8 km/h 22.5 km/h 86% 0 mm
21:24 5.6 °C 3.4 °C 1005.6 hPa SW 11.3 km/h 22.5 km/h 86% 0 mm
21:29 5.3 °C 3.3 °C 1005.6 hPa SW 11.3 km/h 22.5 km/h 87% 0 mm
21:34 5.3 °C 3.3 °C 1006 hPa SW 12.9 km/h 20.9 km/h 87% 0 mm
21:39 5.2 °C 3.4 °C 1005.6 hPa SW 12.9 km/h 22.5 km/h 88% 0 mm
21:44 5.2 °C 3.4 °C 1006 hPa SW 11.3 km/h 22.5 km/h 88% 0 mm
21:49 5.2 °C 3.3 °C 1006 hPa West 12.9 km/h 25.7 km/h 88% 0 mm
21:54 5.1 °C 3.3 °C 1006 hPa SW 16.1 km/h 27.4 km/h 88% 0 mm
21:59 5.1 °C 3.2 °C 1006.3 hPa SW 16.1 km/h 27.4 km/h 88% 0 mm
22:04 4.9 °C 3.1 °C 1006.3 hPa WSW 19.3 km/h 24.1 km/h 88% 0 mm
22:09 4.9 °C 3.1 °C 1006.7 hPa WSW 12.9 km/h 20.9 km/h 88% 0 mm
22:14 4.9 °C 3.1 °C 1006.7 hPa SW 17.7 km/h 25.7 km/h 88% 0 mm
22:19 4.9 °C 3.1 °C 1006.7 hPa SW 9.7 km/h 22.5 km/h 88% 0 mm
22:24 4.9 °C 3.1 °C 1006.7 hPa WSW 9.7 km/h 25.7 km/h 88% 0 mm
22:29 4.8 °C 2.8 °C 1006.7 hPa WSW 12.9 km/h 25.7 km/h 87% 0 mm
22:34 4.8 °C 2.8 °C 1006.7 hPa WSW 14.5 km/h 29 km/h 87% 0 mm
22:39 4.8 °C 2.8 °C 1007 hPa WSW 14.5 km/h 29 km/h 87% 0 mm
22:44 4.8 °C 2.8 °C 1006.7 hPa WSW 12.9 km/h 30.6 km/h 87% 0 mm
22:49 4.8 °C 2.8 °C 1007 hPa WSW 12.9 km/h 27.4 km/h 87% 0 mm
22:54 4.8 °C 2.8 °C 1007 hPa South 9.7 km/h 30.6 km/h 87% 0 mm
22:59 4.8 °C 2.8 °C 1007 hPa WSW 12.9 km/h 30.6 km/h 87% 0 mm
23:04 4.9 °C 2.9 °C 1007.3 hPa WSW 11.3 km/h 24.1 km/h 87% 0 mm
23:09 4.9 °C 2.9 °C 1007.3 hPa WSW 11.3 km/h 24.1 km/h 87% 0 mm
23:14 4.9 °C 2.9 °C 1007.3 hPa WSW 17.7 km/h 22.5 km/h 87% 0 mm
23:19 4.9 °C 2.9 °C 1007.3 hPa SW 12.9 km/h 24.1 km/h 87% 0 mm
23:24 4.9 °C 2.9 °C 1007.7 hPa West 12.9 km/h 25.7 km/h 87% 0 mm
23:29 4.9 °C 2.7 °C 1007.7 hPa West 6.4 km/h 27.4 km/h 86% 0 mm
23:34 4.9 °C 2.9 °C 1007.7 hPa WSW 12.9 km/h 29 km/h 87% 0 mm
23:39 4.9 °C 2.9 °C 1007.7 hPa WSW 12.9 km/h 29 km/h 87% 0 mm
23:44 4.8 °C 2.8 °C 1008 hPa WSW 12.9 km/h 24.1 km/h 87% 0 mm
23:49 4.8 °C 2.8 °C 1007.7 hPa WSW 12.9 km/h 22.5 km/h 87% 0 mm
23:54 4.7 °C 2.7 °C 1007.7 hPa WSW 12.9 km/h 27.4 km/h 87% 0 mm
23:59 4.7 °C 2.7 °C 1007.7 hPa NW 11.3 km/h 22.5 km/h 87% 0 mm
Buffalo, New York, USA
Compliments of Weather Underground - 2.5 mb